Date String (YYYY-MM-DD hh:mm:ss) UTC,Instrument flags,absolute air pressure of the measurement (hPa),sample flow rate (lpm),inlet stack bypass flow (lpm),air temperature of the measurement (°C),ambient temperature measured by the external sensor (°C),aerosol sample conditioner tube jacket temperature (°C),OPC LED temperature (°C),internal box temperature (°C),relative humidity of the measurement (%),span deviation,mass concentration of particles derived from Lorenz-Mie calculation of OPC scattering (μg/m³),mass concentration of particles derived from Lorenz-Mie calculation of OPC scattering (μg/m³),mass concentration of particles derived from Lorenz-Mie calculation of OPC scattering (μg/m³)
DateTimeUTC,F1_M11,P_M11,Q1_M11,Q2_M11,T1_M11,T2_M11,T3_M11,T4_M11,T5_M11,U1_M11,ZSPAN_M11,X2_M11,X0_M11,X1_M11
2023-06-19 13:00:00,SystemResetWarning,0825.1,5.00,000.00,030.1,028.4,000.0,038.7,031.5,16.3,0000.0,0004.45,0010.80,0003.48
2023-06-19 13:01:00,SystemResetWarning,0825.1,5.00,000.00,030.2,028.4,000.0,038.7,031.6,16.2,0000.0,0004.43,0010.65,0003.48
2023-06-19 13:02:00,SystemResetWarning,0825.1,5.00,000.00,030.2,028.5,000.0,038.7,031.7,16.1,0000.0,0004.40,0010.62,0003.48
2023-06-19 13:03:00,SystemResetWarning,0825.1,5.01,000.00,030.2,028.5,000.0,038.8,031.7,16.4,0000.0,0004.37,0009.95,0003.47
2023-06-19 13:04:00,SystemResetWarning,0825.1,5.00,000.00,030.2,028.5,000.0,038.8,031.6,16.8,0000.0,0004.35,0009.80,0003.46
2023-06-19 13:05:00,SystemResetWarning,0825.1,4.99,000.00,030.2,028.5,000.0,038.8,031.6,16.7,0000.0,0004.36,0010.48,0003.46
2023-06-19 13:06:00,SystemResetWarning,0825.2,4.99,000.00,030.2,028.6,000.0,038.8,031.7,17.2,0000.0,0004.34,0011.04,0003.46
2023-06-19 13:07:00,SystemResetWarning,0825.2,5.00,000.00,030.2,028.6,000.0,038.8,031.7,17.4,0000.0,0004.31,0011.03,0003.46
2023-06-19 13:08:00,SystemResetWarning,0825.2,5.01,000.00,030.2,028.6,000.0,038.8,031.7,19.0,0000.0,0004.30,0010.85,0003.45
2023-06-19 13:09:00,SystemResetWarning,0825.2,5.00,000.00,030.3,028.7,000.0,038.8,031.7,20.4,0000.0,0004.26,0010.21,0003.46
2023-06-19 13:10:00,SystemResetWarning,0825.2,4.99,000.00,030.3,028.7,000.0,038.8,031.8,20.1,0000.0,0004.29,0010.16,0003.46
2023-06-19 13:11:00,SystemResetWarning,0825.2,4.99,000.00,030.3,028.7,000.0,038.8,031.8,18.4,0000.0,0004.35,0010.37,0003.47
2023-06-19 13:12:00,SystemResetWarning,0825.2,4.99,000.00,030.3,028.7,000.0,038.8,031.8,18.4,0000.0,0004.37,0010.74,0003.47
2023-06-19 13:13:00,SystemResetWarning,0825.2,5.00,000.00,030.3,028.8,000.0,038.8,031.8,17.9,0000.0,0004.37,0010.87,0003.48
2023-06-19 13:14:00,SystemResetWarning,0825.3,5.01,000.00,030.4,028.8,000.0,038.9,031.8,19.5,0000.0,0004.40,0011.20,0003.48
2023-06-19 13:15:00,SystemResetWarning,0825.3,5.00,000.00,030.4,028.8,000.0,038.9,031.8,22.0,0000.0,0004.44,0011.40,0003.49
2023-06-19 13:16:00,SystemResetWarning,0825.3,5.00,000.00,030.4,028.9,000.0,038.9,031.8,21.5,0000.0,0004.44,0011.26,0003.49
2023-06-19 13:17:00,SystemResetWarning,0825.3,5.00,000.00,030.4,028.9,000.0,038.9,031.9,20.6,0000.0,0004.45,0010.22,0003.49
2023-06-19 13:18:00,SystemResetWarning,0825.3,5.00,000.00,030.4,028.9,000.0,038.9,031.9,20.0,0000.0,0004.48,0010.36,0003.48
2023-06-19 13:19:00,SystemResetWarning,0825.3,5.00,000.00,030.5,028.2,000.0,038.9,032.0,20.8,0000.0,0004.48,0011.05,0003.49
2023-06-19 13:20:00,SystemResetWarning,0825.3,5.00,000.00,030.4,025.9,000.0,038.8,031.7,20.9,0000.0,0004.48,0011.79,0003.48
2023-06-19 13:21:00,SystemResetWarning,0825.3,5.01,000.00,030.4,025.1,000.0,038.8,031.7,21.1,0000.0,0004.46,0011.76,0003.48
2023-06-19 13:22:00,SystemResetWarning,0825.3,5.02,000.00,030.3,025.4,000.0,038.8,031.4,20.6,0000.0,0004.41,0012.12,0003.49
2023-06-19 13:23:00,SystemResetWarning,0825.2,4.99,000.00,030.1,025.8,000.0,038.8,031.3,21.9,0000.0,0004.42,0012.95,0003.48
2023-06-19 13:24:00,SystemResetWarning,0825.3,5.00,000.00,030.1,026.3,000.0,038.7,031.3,23.4,0000.0,0004.45,0013.23,0003.48
2023-06-19 13:25:00,SystemResetWarning,0825.3,5.00,000.00,030.1,026.7,000.0,038.7,031.3,21.8,0000.0,0004.45,0012.78,0003.48
2023-06-19 13:26:00,SystemResetWarning,0825.2,5.01,000.00,030.0,027.0,000.0,038.7,031.4,17.0,0000.0,0004.46,0012.74,0003.48
2023-06-19 13:27:00,SystemResetWarning,0825.3,5.01,000.00,030.0,027.3,000.0,038.7,031.4,16.3,0000.0,0004.49,0012.92,0003.50
2023-06-19 13:28:00,SystemResetWarning,0825.3,4.99,000.00,030.0,027.6,000.0,038.7,031.4,16.8,0000.0,0004.48,0013.59,0003.50
2023-06-19 13:29:00,SystemResetWarning,0825.3,4.99,000.00,030.0,027.8,000.0,038.7,031.4,22.3,0000.0,0004.48,0013.88,0003.51
2023-06-19 13:30:00,SystemResetWarning,0825.3,5.00,000.00,030.1,027.9,000.0,038.7,031.5,23.8,0000.0,0004.50,0013.35,0003.52
2023-06-19 13:31:00,SystemResetWarning,0825.4,5.00,000.00,030.1,028.1,000.0,038.7,031.5,22.5,0000.0,0004.48,0012.31,0003.53
2023-06-19 13:32:00,SystemResetWarning,0825.4,5.00,000.00,030.1,028.2,000.0,038.7,031.6,23.7,0000.0,0004.50,0012.21,0003.53
2023-06-19 13:33:00,SystemResetWarning,0825.4,5.01,000.00,030.1,028.3,000.0,038.7,031.6,22.4,0000.0,0004.54,0012.18,0003.52
2023-06-19 13:34:00,SystemResetWarning,0825.4,5.01,000.00,030.1,028.4,000.0,038.7,031.6,17.9,0000.0,0004.50,0011.67,0003.53
2023-06-19 13:35:00,SystemResetWarning,0825.4,5.00,000.00,030.1,028.4,000.0,038.7,031.6,18.9,0000.0,0004.48,0010.98,0003.54
2023-06-19 13:36:00,SystemResetWarning,0825.4,4.99,000.00,030.1,028.5,000.0,038.7,031.7,22.3,0000.0,0004.49,0011.04,0003.54
2023-06-19 13:37:00,SystemResetWarning,0825.4,5.01,000.00,030.2,028.6,000.0,038.7,031.7,22.4,0000.0,0004.45,0010.98,0003.55
2023-06-19 13:38:00,SystemResetWarning,0825.4,5.01,000.00,030.2,028.6,000.0,038.7,031.7,19.6,0000.0,0004.41,0010.71,0003.55
2023-06-19 13:39:00,SystemResetWarning,0825.5,5.00,000.00,030.2,028.7,000.0,038.7,031.7,20.5,0000.0,0004.42,0010.18,0003.54
2023-06-19 13:40:00,SystemResetWarning,0825.5,5.01,000.00,030.2,028.7,000.0,038.7,031.7,22.9,0000.0,0004.45,0009.69,0003.55
2023-06-19 13:41:00,SystemResetWarning,0825.5,4.99,000.00,030.2,028.5,000.0,038.7,031.8,23.2,0000.0,0004.45,0009.72,0003.55
2023-06-19 13:42:00,SystemResetWarning,0825.5,4.98,000.00,030.3,026.7,000.0,038.7,031.7,21.1,0000.0,0004.49,0010.15,0003.55
2023-06-19 13:43:00,SystemResetWarning,0825.5,5.01,000.00,030.2,025.1,000.0,038.6,031.6,21.4,0000.0,0004.48,0010.18,0003.55
2023-06-19 13:44:00,SystemResetWarning,0825.5,5.01,000.00,030.2,025.3,000.0,038.6,031.5,22.9,0000.0,0004.50,0010.21,0003.55
2023-06-19 13:45:00,SystemResetWarning,0825.5,5.00,000.00,030.0,025.7,000.0,038.6,031.2,23.0,0000.0,0004.49,0009.52,0003.56
2023-06-19 13:46:00,SystemResetWarning,0825.5,5.00,000.00,030.0,026.1,000.0,038.6,031.2,23.2,0000.0,0004.47,0009.42,0003.56
2023-06-19 13:47:00,SystemResetWarning,0825.4,5.00,000.00,030.0,026.5,000.0,038.6,031.2,20.9,0000.0,0004.44,0010.02,0003.55
2023-06-19 13:48:00,SystemResetWarning,0825.5,4.99,000.00,029.9,026.9,000.0,038.6,031.3,20.9,0000.0,0004.43,0010.54,0003.56
2023-06-19 13:49:00,SystemResetWarning,0825.5,5.00,000.00,029.9,027.2,000.0,038.6,031.3,19.9,0000.0,0004.44,0010.92,0003.56
2023-06-19 13:50:00,SystemResetWarning,0825.5,5.01,000.00,029.9,027.4,000.0,038.6,031.3,19.3,0000.0,0004.45,0011.06,0003.56
2023-06-19 13:51:00,SystemResetWarning,0825.5,5.01,000.00,029.9,027.7,000.0,038.5,031.3,18.4,0000.0,0004.46,0011.11,0003.57
2023-06-19 13:52:00,SystemResetWarning,0825.5,4.99,000.00,029.9,027.8,000.0,038.5,031.4,19.1,0000.0,0004.46,0011.53,0003.57
2023-06-19 13:53:00,SystemResetWarning,0825.6,5.00,000.00,029.9,028.0,000.0,038.5,031.4,19.6,0000.0,0004.48,0011.37,0003.58
2023-06-19 13:54:00,SystemResetWarning,0825.6,5.00,000.00,030.0,028.1,000.0,038.5,031.4,18.4,0000.0,0004.50,0011.50,0003.59
2023-06-19 13:55:00,SystemResetWarning,0825.5,5.00,000.00,030.0,028.2,000.0,038.5,031.4,19.2,0000.0,0004.49,0012.28,0003.60
2023-06-19 13:56:00,SystemResetWarning,0825.6,5.00,000.00,030.0,028.3,000.0,038.5,031.5,19.4,0000.0,0004.51,0012.45,0003.59
2023-06-19 13:57:00,SystemResetWarning,0825.5,5.00,000.00,030.0,028.4,000.0,038.6,031.6,18.5,0000.0,0004.56,0012.84,0003.59
2023-06-19 13:58:00,SystemResetWarning,0825.5,5.01,000.00,030.0,028.4,000.0,038.6,031.6,17.3,0000.0,0004.60,0013.11,0003.61
2023-06-19 13:59:00,SystemResetWarning,0825.6,5.00,000.00,030.0,028.5,000.0,038.6,031.6,19.1,0000.0,0004.62,0012.28,0003.63
